TimeMST,TemperatureF,Dew PointF,Humidity,Sea Level PressureIn,VisibilityMPH,Wind Direction,Wind SpeedMPH,Gust SpeedMPH,PrecipitationIn,Events,Conditions,WindDirDegrees,DateUTC
12:53 AM,37.0,35.1,93,30.13,8.0,Calm,Calm,-,N/A,,Mostly Cloudy,0,2012-11-16 07:53:00
1:53 AM,37.0,35.1,93,30.11,8.0,Calm,Calm,-,N/A,,Scattered Clouds,0,2012-11-16 08:53:00
2:53 AM,37.0,34.0,89,30.11,8.0,Calm,Calm,-,N/A,,Clear,0,2012-11-16 09:53:00
3:53 AM,37.0,34.0,89,30.09,8.0,Calm,Calm,-,N/A,,Overcast,0,2012-11-16 10:53:00
4:53 AM,37.0,34.0,89,30.09,8.0,WSW,4.6,-,N/A,,Mostly Cloudy,250,2012-11-16 11:53:00
5:53 AM,37.0,34.0,89,30.09,8.0,NE,4.6,-,N/A,,Overcast,50,2012-11-16 12:53:00
6:53 AM,37.0,34.0,89,30.10,8.0,Calm,Calm,-,N/A,,Overcast,0,2012-11-16 13:53:00
7:53 AM,37.0,34.0,89,30.12,8.0,WSW,4.6,-,N/A,,Overcast,250,2012-11-16 14:53:00
8:53 AM,37.9,35.1,89,30.12,6.0,Calm,Calm,-,N/A,,Overcast,0,2012-11-16 15:53:00
9:53 AM,41.0,36.0,82,30.12,9.0,Calm,Calm,-,N/A,,Overcast,0,2012-11-16 16:53:00
10:53 AM,45.0,35.1,68,30.11,10.0,ENE,3.5,-,N/A,,Overcast,60,2012-11-16 17:53:00
11:53 AM,46.0,37.0,71,30.10,10.0,Variable,3.5,-,N/A,,Overcast,0,2012-11-16 18:53:00
12:53 PM,48.9,37.0,64,30.08,10.0,Calm,Calm,-,N/A,,Clear,0,2012-11-16 19:53:00
1:53 PM,51.1,37.0,59,30.06,10.0,Calm,Calm,-,N/A,,Partly Cloudy,0,2012-11-16 20:53:00
2:53 PM,53.1,37.0,55,30.03,10.0,Calm,Calm,-,N/A,,Clear,0,2012-11-16 21:53:00
3:53 PM,53.1,37.0,55,30.03,10.0,NNW,3.5,-,N/A,,Clear,340,2012-11-16 22:53:00
4:53 PM,52.0,37.9,59,30.03,10.0,North,4.6,-,N/A,,Clear,10,2012-11-16 23:53:00
5:53 PM,48.0,37.0,66,30.03,10.0,North,4.6,-,N/A,,Mostly Cloudy,350,2012-11-17 00:53:00
6:53 PM,46.0,37.0,71,30.04,10.0,Calm,Calm,-,N/A,,Overcast,0,2012-11-17 01:53:00
7:53 PM,45.0,37.9,76,30.04,10.0,Calm,Calm,-,N/A,,Overcast,0,2012-11-17 02:53:00
8:53 PM,45.0,37.9,76,30.03,10.0,Calm,Calm,-,N/A,,Mostly Cloudy,0,2012-11-17 03:53:00
9:53 PM,44.1,37.9,79,30.04,10.0,Calm,Calm,-,N/A,,Mostly Cloudy,0,2012-11-17 04:53:00
10:53 PM,44.1,39.0,82,30.03,10.0,WSW,4.6,-,N/A,,Overcast,250,2012-11-17 05:53:00
11:53 PM,43.0,39.0,86,30.02,9.0,Calm,Calm,-,N/A,,Overcast,0,2012-11-17 06:53:00